Starlink 11298

operational
NORAD ID: 61211 Int'l Des: 2024-171 Owner: SPXS Country: US Constellation: starlink
LEOCIRCULAR

About Starlink 11298

Description loading...

Live Position

Loading 3D Globe...

Upcoming Passes

Altitude History

Altitude vs Time

uPlot chart will show altitude changes over time

Two-Line Element Set

1 61211U 24171M 25303.86178282 -.00000054 00000-0 44074-5 0 9995
2 61211 53.1579 96.5701 0000729 67.3752 292.7343 15.69706478 64002
Epoch: Oct 30, 2025 • Age: 14 hours

Current Status

Altitude 365.8 km
Velocity 7.70 km/s
Sub-Earth Point 53.04°N, 26.37°W
Launch Date Sep 20, 2024
Age 1.1 years
Type internet

Technical Details

Classification Payload
Mass 960.00 kg
Dry Mass 910.00 kg
Total Mass 960.00 kg
Length 0.30 m
Diameter 4.10 m
Span 29.00 m
Shape Box + pan
Manufacturer SPXS
Bus Type Starlink V2MD
Phase Status In Orbit
Owner/State SPXS/US

Large Constellations

Loading constellations...